{"data":{"norad_id":62908,"epoch":"2026-09-21T00:11:49.472736Z","epoch_age_seconds":124337,"freshness":"FRESH","line1":"1 62908U 25027B   26264.00821149  .00178575  00000+0  13626-2 0  9998","line2":"2 62908  42.9998 250.0837 0001868 252.4047 107.6616 15.70889395 93879","mean_motion":15.70889395,"eccentricity":0.0001868,"inclination_deg":42.9998,"raan_deg":250.0837,"arg_perigee_deg":252.4047,"mean_anomaly_deg":107.6616,"bstar":0.0013626,"rev_number":9387,"period_min":91.667815989044,"perigee_km":355.09588221619,"apogee_km":357.61188801087,"semimajor_km":6734.4908851135,"source":"CELESTRAK","updated_at":"2026-09-22T09:00:49.706474Z"}}